CZ-6A DEB

Satellite information

Favourite Embed

Satellite Type and Status

DEBRISIN ORBIT

Key statistics

Satellite CZ-6A DEB at a glance.

Uptime

1080

Days in orbit

Revolutions

≈ 14.6

Per day

Orbit

SSO

Sun Synchronous Orbit

Inclination

98.5

Latest

Satellite identification and parameters

Extended collection of information and parameters for CZ-6A DEB.

Object identification

Identified? True

Debris? True

Object name: CZ-6A DEB

International designator: 2022-151YR

Object number (NORAD): 55543

Object ID (CCSDS): 55543

Country: PEOPLES REPUBLIC OF CHINA (PRC)

Current information (Y/N): Y

RCS size: SMALL

Orbital parameters

Period: 98.945 minutes

Inclination: 98.5419 deg

SMA: 7086.333 km

Apoapsis: 803.298 km

Periapsis: 613.099 km

RAAN: 327.6071 deg

Eccentricy: 0.01342011

Argument of periapsis: 311.7163 deg

Mean anomaly: 47.2617 deg

Mean motion: 14.55359858 rev/day

Mean motion (dot): 0.00008309 rev/day2

B* drag term: 0.001705766 1/REarth

Two-line elements (TLE)

Creation date: Oct. 25, 2025, 10:45 a.m.

Reference frame: TEME

Reference center: EARTH

Epoch: Oct. 25, 2025, 12:12 a.m. UTC

TLE line 0: 0 CZ-6A DEB

TLE line 1: 1 55543U 22151YR 25298.00856204 .00008309 00000-0 17058-2 0 9997

TLE line 2: 2 55543 98.5419 327.6071 0134201 311.7163 47.2617 14.55359858150049

Live tracking on map

Real-time ground track for satellite CZ-6A DEB.

In-orbit conjunctions

A list of the most updated potential collisions computed for object CZ-6A DEB.

Target Orbit TCA Probability of collision Miss distance Type
CZ-4B R/B SSO 2025-06-15 03:15:42 0.0001527408 425.0 (m) ROCKET BODY
SL-8 DEB LEO 2024-11-16 20:01:03 0.0001100855 503.0 (m) DEBRIS
SL-8 R/B LEO 2024-09-04 12:36:05 0.0001042472 278.0 (m) ROCKET BODY

Associated space launch

Chinese satellite reported for atmospheric/ocean/environmental/spatial parameter research purposes, details TBD.

CZ-6A DEB was lifted into orbit during the mission ‘Long March 6A | Yunhai 3’, on board a Long March 6A space rocket.

The launch took place on Nov. 11, 2022, 10:52 p.m. from Launch Complex 9A.

For more information about the launch, click the button.

Launch to space Long March 6A | Yunhai 3
Long March 6A | Yunhai 3

Agency: N/A

Status: Launch Successful

Launch date: Nov. 11, 2022, 10:52 p.m. UTC

Rocket: Long March 6A

Launch pad: Launch Complex 9A

Location: Taiyuan Satellite Launch Center, People's Republic of China

...

Latest news about this satellite

There are no fresh news available about this satellite. Check back as we update our databases every day.


Newsletter sign-up

Weekly statistics, charts and insights to help you stay on top of the space industry.